Overview Statistics Trail Chart Weather Telemetry Raw packets
 

This is the latest recevied weather packets stored in our database for station/object N9BLE. If no packets are shown the sender has not sent any weather packets the latest 10 day(s).

<< 104 105 106 107 108 109 110 >>
Time Temp. Humidity Pressure Rain* Wind** Luminosity Snow
1777221462 12.22° C 82% 1021.9 hPa 0 mm - 181 W/m² -
1777221160 11.67° C 84% 1021.9 hPa 0 mm - 196 W/m² -
1777220855 11.67° C 85% 1021.8 hPa 0 mm - 224 W/m² -
1777220552 11.67° C 85% 1022 hPa 0 mm - 237 W/m² -
1777220247 11.67° C 85% 1022.1 hPa 0 mm - 306 W/m² -
1777219943 11.11° C 86% 1022.2 hPa 0 mm - 311 W/m² -
1777219640 11.11° C 86% 1022 hPa 0 mm - 276 W/m² -
1777219337 10.56° C 86% 1022.1 hPa 0 mm - 215 W/m² -
1777219033 10.56° C 87% 1022.2 hPa 0 mm - 264 W/m² -
1777218728 10.56° C 88% 1022.3 hPa 0 mm - 235 W/m² -
1777218424 10.56° C 87% 1022.4 hPa 0 mm - 209 W/m² -
1777218120 10.56° C 89% 1022.4 hPa 0 mm - 231 W/m² -
1777217816 10.56° C 89% 1022.4 hPa 0 mm - 177 W/m² -
1777217512 10° C 89% 1022.3 hPa 0 mm - 338 W/m² -
1777217208 10° C 89% 1022.2 hPa 0 mm - 171 W/m² -
1777216905 9.44° C 91% 1022.2 hPa 0 mm - 233 W/m² -
1777216602 9.44° C 91% 1022.2 hPa 0 mm - 209 W/m² -
1777216298 9.44° C 92% 1022.3 hPa 0 mm - 226 W/m² -
1777215996 8.89° C 93% 1022.3 hPa 0 mm - 172 W/m² -
1777215693 8.89° C 94% 1022.3 hPa 0 mm - 150 W/m² -
1777215393 8.33° C 94% 1022.2 hPa 0 mm - 151 W/m² -
1777215090 8.89° C 94% 1022.2 hPa 0 mm - 180 W/m² -
1777214785 8.33° C 95% 1022.1 hPa 0 mm - 151 W/m² -
1777214485 8.33° C 95% 1022 hPa 0 mm - 131 W/m² -
1777214181 8.33° C 95% 1022.1 hPa 0 mm - 128 W/m² -

* Rain latest hour (hover to see other rain measurements)
** Current wind speed in m/s (hover to see current wind gust speed)